Theta_e
291 291 290 290 289 289 288 288 288 288 288 288 288 288 288 288 288 288 288 288 288 287 287 287 287 287 287 287 287 287 287 287 288 287 287 287 287 287 287 287 288 288 288 288 288 288 288 288 289 289 289 289 289 289 289 290 290 290 290 290 291 291 291 292 292 292 292 293 293 293 293 293 293 294 294 294 294 294 294 293 294 294 294 294 294 294
291 290 290 289 289 289 288 288 288 288 288 288 288 288 288 288 288 288 288 288 287 287 287 287 287 287 287 287 287 287 287 287 287 287 287 287 287 287 287 287 287 287 288 288 288 288 288 288 288 289 289 289 289 289 289 290 290 290 290 290 290 291 291 291 292 292 292 292 292 292 292 292 293 293 293 293 293 293 293 293 293 293 293 293 293 293
291 290 290 289 289 289 288 288 288 288 288 288 288 288 288 288 288 288 288 288 287 287 287 287 287 287 287 287 287 287 287 287 287 287 287 287 287 287 287 287 287 287 287 288 288 288 288 288 288 288 289 289 289 289 289 289 290 290 290 290 290 290 290 291 291 291 291 291 291 292 292 292 292 292 292 292 292 292 292 292 293 293 293 293 293 293
291 291 290 290 289 289 289 289 289 289 288 288 288 288 288 288 288 288 288 288 287 287 287 287 287 287 287 286 286 286 286 286 286 286 286 286 287 287 287 287 287 287 287 288 288 288 288 288 288 288 289 289 289 289 289 289 289 289 289 290 290 290 290 290 290 291 291 291 291 291 291 291 291 291 291 291 291 291 292 292 292 292 292 292 292 292
291 291 290 290 290 289 289 289 289 288 288 288 288 288 288 288 288 288 288 288 287 287 287 287 287 287 286 286 286 286 286 286 286 286 286 286 286 286 287 287 287 287 287 288 288 288 288 288 288 288 288 289 289 289 289 289 289 289 289 289 289 290 290 290 290 290 290 290 290 290 290 290 290 290 290 290 291 291 291 291 291 291 291 291 292 292
291 291 290 290 289 289 289 288 288 288 288 288 288 288 288 288 288 288 288 287 287 287 287 287 287 286 286 286 286 286 286 286 286 286 286 286 286 286 286 287 287 287 287 287 288 288 288 288 288 288 288 288 289 289 289 289 289 289 289 289 289 289 289 289 289 289 289 289 289 289 289 289 289 289 289 290 290 290 290 290 291 291 291 291 291 291
290 290 290 289 289 289 288 288 288 288 289 289 289 289 288 288 288 288 288 287 287 287 287 287 286 286 286 286 286 285 285 285 285 285 286 286 286 286 286 287 287 287 287 287 288 288 288 288 288 288 288 288 288 288 289 289 289 289 289 289 289 289 289 289 289 289 289 289 289 289 289 289 289 289 289 289 289 289 290 290 290 290 290 290 291 291
290 290 289 289 289 289 289 289 289 289 289 289 289 288 288 288 288 288 287 287 287 287 287 287 286 286 286 285 285 285 285 285 285 285 285 285 286 286 286 287 287 287 287 287 287 288 288 288 288 288 288 288 288 288 288 288 288 288 288 288 288 288 288 288 288 288 288 288 288 288 288 288 288 289 289 289 289 289 289 289 289 290 290 290 290 290
289 289 289 289 289 289 289 289 289 289 289 289 289 288 288 288 288 288 287 287 287 287 287 286 286 286 285 285 285 285 285 285 285 285 285 286 286 286 286 286 287 287 287 287 287 287 288 288 288 288 288 288 288 288 288 288 288 288 288 288 288 288 288 287 287 287 288 288 288 288 288 288 288 288 288 288 288 289 289 289 289 289 289 290 290 290
289 289 289 289 289 289 289 289 289 289 289 289 288 288 288 288 288 288 288 287 287 287 286 286 286 285 285 285 285 285 285 285 285 285 286 286 286 286 286 286 287 287 287 287 287 287 287 287 288 288 288 288 288 288 288 288 287 287 287 287 287 287 287 287 287 287 287 287 287 287 287 288 288 288 288 288 288 288 289 289 289 289 289 289 290 290
289 289 289 289 289 289 289 289 289 289 289 289 288 288 288 288 288 288 287 287 287 286 286 286 285 285 285 285 285 285 285 285 285 285 286 286 286 286 286 286 286 287 287 287 287 287 287 287 287 287 287 287 287 287 287 287 287 287 287 287 287 287 287 287 287 287 287 287 287 287 287 288 288 288 288 288 288 289 289 289 289 289 289 289 290 290
289 289 289 289 289 289 289 289 289 289 289 289 288 288 288 288 288 287 287 287 286 286 285 285 285 285 285 285 285 285 285 285 285 285 286 286 286 286 286 286 286 286 286 286 286 286 286 286 286 286 286 286 287 287 287 287 286 286 287 287 287 287 287 287 287 287 287 287 287 287 288 288 288 288 288 288 289 289 289 289 289 289 289 289 290 290
289 289 289 289 289 289 289 289 289 289 289 289 288 288 288 288 287 287 286 286 286 285 285 285 285 285 285 285 284 285 285 285 285 286 286 286 286 286 286 286 286 286 286 286 286 285 285 286 286 286 286 286 286 286 286 286 286 286 286 286 287 287 287 287 287 287 287 287 287 287 287 288 288 288 288 288 288 289 289 289 289 289 289 289 289 290
289 289 290 290 290 290 289 289 289 289 288 288 288 288 287 287 287 286 286 285 285 285 285 285 285 284 284 284 284 285 285 285 285 286 286 286 286 286 286 286 286 286 285 285 285 285 285 285 285 285 285 286 286 286 286 286 286 286 286 286 286 287 287 287 287 287 287 287 287 287 287 288 288 288 288 288 288 288 289 288 289 289 289 289 289 289
290 290 290 290 290 290 289 289 289 288 288 288 287 287 287 286 286 286 285 285 285 285 285 284 284 284 284 284 285 285 285 285 286 286 286 286 286 286 286 285 285 285 285 285 285 285 285 285 285 285 285 285 285 285 286 286 286 286 286 286 286 287 287 287 287 287 287 287 287 287 287 287 288 288 288 288 288 288 288 288 289 289 289 289 289 289
290 290 290 290 289 289 289 289 288 288 288 287 287 287 286 286 286 285 285 285 285 285 284 284 284 284 284 284 285 285 285 286 286 286 286 285 285 285 285 285 285 285 285 285 285 285 285 285 285 285 285 285 285 286 286 286 286 286 286 287 287 287 287 287 287 287 287 287 287 287 287 287 288 288 288 288 288 288 288 288 288 288 289 289 289 289
290 290 289 289 289 289 288 288 288 288 287 287 287 286 286 286 285 285 285 285 284 284 284 284 284 284 284 285 285 285 285 285 285 285 285 285 285 285 285 285 285 285 285 285 285 285 285 285 285 285 285 285 285 286 286 286 286 286 286 287 287 287 287 287 287 287 287 287 287 287 288 288 288 288 288 288 288 288 288 288 288 288 288 289 289 289
289 289 289 289 289 289 288 288 287 287 287 286 286 286 285 285 285 285 285 284 284 284 284 284 284 284 284 285 285 285 285 285 285 285 285 285 285 284 285 284 284 284 285 285 285 285 285 285 285 285 285 285 286 286 286 286 286 286 286 287 287 287 287 287 287 287 287 287 287 287 287 288 288 288 288 288 288 288 288 288 288 288 289 289 289 289
289 289 289 289 289 288 288 287 287 287 286 286 286 285 285 285 285 284 284 284 284 284 284 284 284 284 284 285 285 285 285 285 285 284 284 284 284 284 284 284 284 284 284 285 285 285 285 285 285 285 285 285 285 286 286 286 286 286 287 287 287 287 287 287 287 287 287 287 287 288 288 288 288 288 288 288 288 288 288 288 288 288 289 289 289 289
289 289 288 288 288 287 287 287 287 286 286 286 285 285 285 284 284 284 284 284 284 284 284 284 284 284 285 285 285 285 284 284 284 284 284 284 284 284 284 284 284 284 285 285 285 285 285 285 285 285 285 285 285 285 286 286 286 286 287 287 287 287 287 287 287 287 287 287 287 288 288 288 288 288 288 288 288 288 288 288 288 288 288 288 288 289
288 288 288 287 287 287 287 286 286 286 285 285 285 285 284 284 284 284 284 284 284 284 284 285 285 284 284 284 284 284 284 284 284 284 284 284 284 284 284 284 285 285 285 285 285 285 285 285 285 285 285 285 285 286 286 286 286 286 286 287 287 287 287 287 287 287 287 287 287 288 288 288 288 288 288 288 288 288 288 288 288 288 288 288 288 288
287 287 287 287 287 286 286 286 285 285 285 285 284 284 284 284 284 284 284 284 284 285 285 284 284 284 284 284 283 283 283 283 283 284 284 284 284 284 284 285 285 285 284 284 284 284 284 285 285 285 285 285 285 286 286 286 286 286 286 286 287 287 287 287 287 287 287 287 287 287 287 287 287 287 288 288 288 288 288 288 288 288 288 288 288 288
287 287 287 286 286 286 286 285 285 285 284 284 284 284 284 284 284 284 284 284 284 284 284 283 283 283 283 283 283 283 283 283 284 284 284 284 284 284 284 284 284 284 284 284 284 285 285 285 285 285 285 285 285 285 285 286 286 286 286 286 286 286 287 287 287 287 287 287 287 287 287 287 287 287 287 287 287 287 287 288 288 288 288 288 288 288
286 286 286 286 285 285 285 285 284 284 284 284 284 283 283 284 284 284 284 284 284 283 283 283 283 283 283 283 283 283 283 284 284 284 284 284 284 284 284 284 284 284 284 284 284 284 284 284 284 284 284 284 285 285 285 285 285 286 286 286 286 286 287 287 287 287 287 287 287 287 287 287 287 287 287 287 287 287 287 287 287 287 287 287 287 287
285 285 285 285 285 285 285 285 285 284 284 284 284 284 284 284 284 284 283 283 283 283 283 283 283 283 283 283 283 283 284 284 284 284 284 284 284 284 284 284 284 284 284 284 284 284 284 284 284 284 284 284 284 284 285 285 285 285 286 286 286 286 287 287 287 287 287 287 287 287 287 287 287 287 287 287 287 287 287 287 287 287 287 287 287 287
284 284 284 285 285 285 285 285 285 285 285 284 284 284 284 283 283 283 283 283 282 282 282 283 283 283 283 283 283 283 284 284 284 284 284 284 284 284 284 284 284 284 284 284 284 284 284 284 284 284 284 284 284 284 284 284 285 285 285 286 286 286 286 287 287 287 287 287 287 287 287 287 287 287 287 287 287 287 287 287 287 287 287 287 287 287
283 283 283 284 284 284 284 284 284 284 284 284 284 284 284 283 283 283 283 282 282 283 283 283 283 283 283 283 283 283 283 283 284 284 284 283 283 283 284 284 284 284 284 284 284 284 284 284 284 284 284 284 284 284 284 284 285 285 285 286 286 286 286 286 286 286 287 287 287 287 287 287 287 287 287 287 287 287 287 287 287 287 287 287 287 287
283 283 283 283 283 283 283 283 283 283 283 283 283 283 283 283 283 283 283 282 282 283 283 283 283 283 283 283 283 283 283 283 283 283 283 283 283 283 283 284 284 284 284 284 284 283 283 283 283 283 283 283 284 284 284 284 285 285 285 285 285 285 285 286 286 286 286 286 286 286 286 287 287 287 287 287 287 287 287 287 287 287 287 287 287 287
284 283 283 283 282 282 282 282 282 282 282 283 283 283 283 283 282 282 282 282 282 282 283 283 283 283 283 283 283 282 282 282 282 283 283 283 283 283 283 284 284 284 284 283 283 283 283 283 283 283 283 283 284 284 284 284 284 284 284 284 284 285 285 285 285 286 286 286 286 286 286 286 286 287 287 287 287 287 287 287 287 287 287 287 286 286
284 284 283 283 283 282 282 282 282 282 282 282 282 282 282 282 282 282 282 282 282 282 282 282 282 282 282 282 282 282 282 283 283 283 283 284 283 284 283 284 283 283 283 283 283 283 283 283 283 283 283 283 283 283 283 283 283 283 283 284 284 284 285 285 285 285 286 286 286 286 286 286 286 286 286 286 286 286 286 287 287 287 286 286 286 286
283 283 283 283 282 282 282 282 282 281 282 282 282 282 282 282 282 282 282 282 282 282 282 282 282 282 282 282 282 282 283 283 284 284 283 283 283 283 283 283 283 283 283 283 282 282 283 283 283 283 283 283 283 283 283 283 283 283 283 284 284 284 284 285 285 285 285 285 286 286 286 286 286 286 286 286 286 286 286 286 286 286 286 286 286 286
283 282 282 282 282 282 281 281 281 281 281 281 281 281 281 282 282 282 282 282 282 282 282 282 282 282 282 282 282 282 282 283 283 283 283 283 283 283 283 283 283 283 283 282 282 282 282 282 283 282 282 282 282 282 283 283 283 283 283 284 284 284 284 284 285 285 285 285 285 285 286 286 286 286 286 286 286 286 286 286 286 286 286 286 286 286
282 282 282 281 281 281 281 281 281 281 281 281 281 281 281 281 281 281 281 281 281 281 281 281 281 281 281 281 282 282 282 282 282 282 282 282 282 282 282 282 282 282 282 282 282 282 282 282 282 282 282 282 282 282 283 283 283 283 283 283 284 284 284 284 284 285 285 285 285 285 285 285 285 285 285 285 285 286 286 286 286 286 286 286 286 286
282 281 281 281 281 281 281 281 282 282 282 282 282 281 281 281 281 281 281 281 281 281 281 281 281 281 281 281 281 281 281 282 282 282 282 282 282 282 282 282 282 282 282 282 282 282 282 282 282 282 282 282 282 282 282 283 283 283 283 283 284 284 284 284 284 284 284 285 285 285 285 285 285 285 285 285 285 285 285 285 286 286 286 286 286 286
281 281 281 281 281 282 282 282 282 282 282 282 282 282 282 281 281 281 281 281 281 281 281 281 281 281 281 281 281 281 281 281 281 282 282 282 282 282 282 282 282 282 282 282 282 281 282 282 282 282 282 282 282 282 282 283 283 283 283 283 283 284 284 284 284 284 284 284 284 284 284 284 284 284 284 284 285 285 285 285 286 286 286 286 286 286
281 281 281 281 282 282 282 282 282 282 282 282 282 282 282 281 281 281 281 281 280 280 280 280 280 280 280 280 280 281 281 281 281 281 281 281 281 281 281 281 281 281 281 281 281 281 281 281 282 282 282 282 282 282 282 283 283 283 283 283 283 283 283 283 284 284 284 284 284 284 284 284 284 284 284 284 285 285 285 285 286 286 286 286 286 286
281 281 281 282 282 282 282 282 282 282 282 282 282 281 281 281 281 281 280 280 280 280 280 280 280 280 280 280 280 280 280 280 280 280 280 281 281 281 281 281 281 281 281 281 281 281 281 281 281 281 282 282 282 282 282 282 283 283 283 283 283 283 283 283 283 283 283 283 284 284 284 284 284 284 284 284 285 285 285 285 285 285 285 285 286 286
281 281 282 282 282 282 282 282 282 282 282 281 281 281 281 280 280 280 280 280 280 280 280 280 280 280 280 280 280 280 280 280 280 280 280 280 280 280 280 281 281 281 281 281 281 281 281 281 281 281 281 282 282 282 282 282 282 282 282 282 283 283 283 283 283 283 283 283 284 284 284 284 284 284 284 284 284 284 284 284 284 285 285 285 285 285
281 281 281 282 282 282 282 282 282 281 281 281 281 280 280 280 280 280 280 280 280 280 280 280 280 280 280 280 280 280 280 280 280 280 280 280 280 280 280 281 281 281 281 281 281 281 281 281 281 281 281 282 282 282 282 282 282 282 282 282 282 283 283 283 283 283 283 283 283 284 284 284 284 284 284 284 284 284 284 284 284 285 285 285 285 285
281 281 281 282 282 282 281 281 281 281 281 280 280 280 280 280 280 280 280 280 280 280 280 280 280 280 280 280 280 281 281 281 281 281 281 281 281 281 281 281 281 281 281 281 281 281 281 281 281 281 281 282 282 282 282 282 282 282 282 283 283 283 283 283 283 283 283 283 283 283 283 284 284 284 284 284 284 284 284 284 285 285 285 285 285 285
281 281 281 281 281 281 281 281 281 280 280 280 280 280 280 280 280 280 280 280 280 281 281 281 281 281 281 281 281 281 281 281 281 281 281 281 281 281 281 281 281 281 281 281 281 281 281 281 281 281 282 282 282 282 282 282 282 282 283 283 283 283 283 283 283 283 283 283 283 283 284 284 284 284 284 284 284 284 284 285 285 285 285 285 285 285
281 281 281 281 281 281 281 280 280 280 280 280 280 280 280 280 280 280 280 280 281 281 281 281 281 281 281 281 281 281 281 281 281 281 281 281 281 281 281 281 281 281 281 281 281 282 282 282 282 282 282 282 282 282 282 282 282 282 282 283 283 283 283 283 283 283 283 283 283 284 284 284 284 284 284 284 284 284 284 284 285 285 285 285 285 285
280 281 281 281 280 280 280 280 280 280 280 280 280 280 280 280 280 280 280 280 280 280 281 281 281 281 281 281 281 281 281 281 281 281 281 281 282 282 282 282 282 282 282 282 282 282 282 282 282 282 282 282 282 282 282 282 282 283 283 283 283 283 283 283 283 283 283 283 283 284 284 284 284 284 284 284 284 284 284 285 285 285 285 285 285 285
280 280 280 280 280 280 280 280 280 280 280 280 280 280 280 280 280 280 280 280 280 281 281 281 281 281 281 281 281 281 281 281 281 281 282 282 282 282 282 282 282 282 282 282 282 283 283 283 283 283 283 283 283 283 283 283 283 283 283 283 283 283 283 283 283 283 283 283 283 283 284 284 284 284 284 284 284 284 285 285 285 285 285 285 285 285
280 280 280 280 280 280 280 280 280 280 280 280 280 280 280 280 280 280 280 280 280 281 281 281 281 281 281 281 281 281 281 281 281 281 281 282 282 282 282 282 282 283 283 283 283 283 283 283 283 283 283 283 283 283 283 283 283 283 283 283 283 283 283 283 283 283 283 283 284 284 284 284 284 284 284 284 284 285 285 285 285 285 285 285 285 285
280 280 280 280 280 280 280 280 280 280 280 280 280 280 280 280 280 280 280 280 280 281 281 281 281 281 281 281 281 281 281 281 281 281 281 282 282 282 282 282 283 283 283 283 283 283 283 283 283 283 283 283 283 283 283 283 283 283 283 283 283 283 283 283 283 284 284 284 284 284 284 284 284 284 285 285 285 285 285 285 285 285 285 285 285 285
280 280 280 280 280 280 280 280 280 280 280 280 280 280 280 280 280 280 280 280 280 280 281 281 281 281 281 281 281 281 281 281 281 281 281 282 282 282 282 282 282 283 283 283 283 283 283 283 283 283 283 283 283 283 283 283 283 283 283 283 283 284 284 284 284 284 284 284 284 284 284 285 285 285 285 285 285 285 285 285 285 285 285 285 285 285
279 279 279 279 279 279 279 279 279 279 280 280 280 280 280 280 280 280 280 280 280 281 281 281 281 281 281 281 281 281 281 281 281 281 281 281 282 282 282 282 282 283 283 283 283 283 283 283 283 283 283 283 283 283 283 283 283 283 284 284 284 284 284 284 284 284 284 284 285 285 285 285 285 285 285 285 286 286 286 286 286 286 286 286 286 286
278 279 279 279 279 279 279 279 279 279 279 280 280 280 280 280 280 280 280 280 280 280 280 280 281 281 281 281 281 281 281 281 281 281 281 281 282 282 282 282 282 283 283 283 283 283 283 283 283 283 283 283 283 283 283 284 284 284 284 284 284 284 284 284 284 285 285 285 285 285 285 286 286 286 286 286 286 286 286 286 286 286 286 286 286 286
278 278 278 278 279 279 279 279 279 279 280 280 280 280 280 280 280 280 280 280 280 280 280 280 281 281 281 281 281 281 281 281 281 281 281 282 282 282 282 282 282 283 283 283 283 283 283 283 283 283 283 284 284 284 284 284 284 284 284 284 284 285 285 285 285 285 285 285 286 286 286 286 286 286 286 286 286 286 286 286 286 286 287 287 287 287
278 278 278 278 278 279 279 279 279 279 279 280 280 280 280 280 280 280 280 280 280 280 281 281 281 281 281 281 281 281 281 281 281 281 282 282 282 282 282 282 283 283 283 283 283 283 283 283 283 283 283 284 284 284 284 284 284 284 284 285 285 285 285 285 285 285 285 285 286 286 286 286 286 286 286 286 286 286 287 287 287 287 287 287 287 287
Wind_Speed
7 6 7 8 9 9 10 10 9 9 9 9 9 9 9 9 10 11 11 11 12 13 13 14 14 15 15 14 14 14 15 15 16 16 17 17 18 18 18 19 19 19 19 20 20 19 19 19 19 19 19 19 19 19 19 19 19 19 19 20 20 20 20 20 20 21 21 22 22 22 23 23 23 23 24 24 24 24 25 25 26 26 26 26 26 27
6 6 7 8 9 9 9 9 9 9 10 10 10 9 9 9 10 11 11 11 11 12 12 13 14 14 14 14 14 15 15 16 16 17 17 18 18 19 19 19 20 20 19 19 19 19 19 18 18 18 18 18 18 18 18 18 19 19 19 19 20 20 20 20 20 21 21 22 22 23 23 23 23 24 24 24 24 25 25 25 26 26 26 26 27 27
4 5 6 7 8 9 9 9 9 10 10 10 10 10 10 10 11 11 10 10 11 11 12 12 13 14 14 15 15 15 16 16 16 17 17 18 18 19 19 20 20 19 19 19 18 18 18 18 18 18 18 18 18 18 18 18 18 19 19 19 20 20 20 21 21 21 22 22 23 23 23 24 24 24 24 25 25 25 25 26 26 26 26 26 27 27
3 4 5 6 8 9 10 9 9 9 9 10 10 10 11 11 11 10 10 10 11 11 12 12 13 14 14 15 15 16 16 16 17 17 18 18 19 19 19 19 19 19 18 18 18 17 17 17 17 17 18 18 18 18 18 19 19 19 20 20 20 20 21 21 21 22 22 22 23 23 24 24 24 25 25 25 25 26 26 26 26 26 26 26 27 27
4 5 6 7 8 9 9 9 9 9 9 10 10 10 10 10 10 10 10 11 11 12 12 12 13 13 14 15 16 16 16 16 17 17 18 19 19 19 19 18 18 18 18 18 17 17 17 18 18 18 18 19 19 19 19 19 20 20 20 21 21 21 22 22 22 22 23 23 23 24 24 24 25 25 25 25 25 26 26 26 26 26 26 26 26 27
6 7 7 8 8 8 8 9 9 9 9 9 9 9 9 9 10 10 11 11 12 12 12 12 13 13 14 14 15 15 16 16 17 18 18 18 18 18 18 17 17 17 17 18 18 18 18 18 19 19 19 19 19 20 20 20 20 21 21 21 22 22 22 22 23 23 23 23 24 24 24 24 25 25 25 25 25 25 25 25 26 26 26 26 26 27
6 7 7 8 8 8 8 9 9 9 8 8 8 8 8 9 10 11 11 11 12 12 12 13 13 13 13 14 14 15 16 16 16 17 17 17 17 17 17 17 17 17 18 18 19 19 19 19 20 20 20 20 20 20 21 21 21 21 21 22 22 22 22 22 22 23 23 23 23 23 23 24 24 24 24 24 25 25 25 25 25 25 26 26 26 26
7 7 7 7 7 8 9 9 8 7 7 7 7 8 9 9 10 10 11 11 11 11 12 12 12 12 13 13 14 14 15 15 16 16 16 16 16 16 16 17 17 18 18 19 19 19 20 20 20 20 20 21 21 21 21 21 21 21 21 21 22 22 22 22 22 22 22 22 22 22 22 22 22 23 23 23 24 24 24 24 25 25 25 26 26 26
7 7 7 7 8 8 8 8 7 7 7 7 8 8 9 10 10 10 10 10 10 10 10 11 12 12 13 13 14 14 15 15 16 16 16 16 16 16 17 17 17 18 18 19 19 19 20 20 20 21 21 21 21 21 21 21 21 21 21 21 21 21 21 21 21 21 20 20 21 21 21 21 21 21 22 22 23 23 23 24 24 25 25 26 26 26
8 8 8 8 8 8 8 8 8 8 8 8 9 9 10 10 10 10 9 9 9 9 9 10 12 13 14 14 14 14 15 15 16 16 16 16 17 17 17 17 18 18 18 19 19 19 20 20 20 20 21 21 21 21 21 21 20 20 20 20 20 20 20 19 19 19 19 19 19 20 20 20 21 21 21 22 22 23 23 24 24 25 25 26 26 27
8 8 8 8 8 8 8 8 8 8 8 9 9 9 9 9 9 9 9 9 9 10 10 11 12 13 15 15 15 15 15 16 16 16 16 16 16 16 16 16 17 17 18 18 19 19 19 20 20 20 20 20 20 20 20 20 20 20 19 19 19 19 19 19 18 18 19 19 19 19 20 20 21 21 22 22 23 23 24 24 25 25 26 26 27 27
7 7 8 7 7 7 7 8 8 8 8 8 8 8 8 7 7 7 8 9 10 11 12 12 13 13 14 15 16 16 15 15 15 15 15 15 15 15 15 15 16 17 17 18 18 19 19 19 19 20 20 20 19 19 19 19 19 19 19 18 18 18 18 18 18 18 19 19 19 20 21 21 22 22 23 23 24 24 25 25 26 26 26 27 27 28
7 7 7 7 7 7 7 7 7 7 6 6 6 7 7 6 7 7 8 10 11 12 12 13 14 14 15 15 15 15 15 15 15 15 15 15 15 15 15 16 17 17 18 19 19 19 19 19 19 19 20 19 19 19 18 18 18 18 17 17 17 18 18 18 19 19 20 20 21 21 22 22 23 23 23 24 24 25 25 26 26 26 27 27 27 28
7 7 7 7 7 7 7 6 6 6 6 6 6 6 7 7 7 8 9 10 11 11 12 13 14 15 15 15 14 14 14 14 14 14 15 15 15 15 15 16 17 18 19 19 19 20 20 20 20 20 20 19 18 18 17 17 17 17 17 18 18 19 19 19 20 21 21 22 22 22 23 23 23 24 24 24 25 25 25 26 26 27 27 27 28 28
7 7 7 6 6 6 6 6 7 7 7 6 6 6 7 7 7 8 9 10 11 11 12 14 15 15 15 14 13 12 12 13 13 14 15 15 15 16 16 17 18 19 19 19 19 20 20 20 20 20 20 19 18 18 18 18 18 19 19 19 20 20 21 21 22 22 22 23 23 23 23 24 24 24 24 25 25 25 25 26 26 27 27 28 28 28
6 6 6 6 7 7 7 7 7 7 7 6 6 6 6 7 7 8 8 10 11 12 13 13 14 14 13 12 11 10 10 11 13 14 15 17 17 17 16 17 18 19 19 19 19 20 20 20 20 20 20 19 19 19 19 19 20 20 21 21 22 22 22 23 23 23 23 23 24 24 24 24 25 25 25 25 25 25 26 26 26 27 27 28 28 28
6 6 6 7 7 8 7 7 6 6 6 6 6 6 6 6 7 8 8 10 11 12 12 12 11 10 10 12 11 10 10 11 13 15 16 18 18 17 17 17 18 19 20 19 19 19 20 20 20 20 20 20 20 20 20 21 22 22 23 23 23 23 23 23 24 24 24 24 24 24 25 25 25 26 26 26 26 26 26 27 27 27 27 28 28 29
6 6 7 7 7 7 7 6 6 6 6 6 6 6 6 6 7 8 9 10 11 11 11 11 10 9 9 11 11 11 11 12 14 16 17 18 19 18 17 17 17 18 19 20 20 19 19 20 20 21 21 21 21 22 22 23 23 23 24 24 24 24 24 24 24 24 25 25 25 25 26 26 26 26 26 27 27 27 27 27 27 28 28 28 29 29
6 6 6 7 7 7 6 6 6 6 5 5 5 6 6 7 8 9 10 10 11 11 12 12 12 12 12 13 14 14 13 14 15 16 17 19 19 19 18 16 17 18 19 19 20 19 19 20 21 22 22 22 22 23 23 23 23 23 24 24 24 24 25 25 25 25 26 26 26 26 26 26 27 27 27 27 27 27 27 27 28 28 28 28 29 29
6 6 6 6 7 7 7 6 6 5 5 5 5 6 8 9 10 10 10 11 11 12 12 13 13 14 14 15 15 15 15 15 15 16 17 18 19 19 17 16 16 17 18 19 19 19 20 21 22 23 23 23 23 23 23 23 23 24 24 25 25 26 26 26 26 27 27 27 27 27 27 27 27 27 27 27 27 27 27 28 28 28 28 28 29 29
7 7 7 7 7 7 7 6 5 5 5 6 7 8 9 9 10 10 10 11 11 12 12 13 14 14 15 16 17 17 16 16 16 16 16 17 18 18 17 16 16 17 19 19 19 19 20 21 22 23 23 23 22 23 23 24 25 25 26 26 27 27 27 27 27 27 27 27 27 27 27 27 27 27 27 27 28 28 28 28 28 28 28 29 29 29
9 9 9 8 8 7 7 7 7 7 7 7 8 8 9 9 10 10 11 11 11 12 12 13 15 16 17 18 18 18 18 16 15 15 15 16 17 18 17 15 15 17 18 19 20 20 20 21 22 22 22 23 23 24 24 25 26 26 27 27 27 27 27 27 27 27 27 27 27 27 27 27 27 27 27 28 28 28 28 28 28 28 28 29 29 29
9 9 9 8 8 8 8 8 9 9 8 8 8 9 10 10 11 11 11 12 12 13 14 16 17 18 18 19 19 19 17 16 15 14 14 14 16 17 17 15 16 17 18 19 20 20 20 21 22 22 23 23 24 24 25 26 26 27 27 28 28 28 27 27 27 27 27 27 27 27 27 27 27 27 28 28 28 28 28 28 28 28 28 28 29 29
8 8 8 8 8 8 9 9 9 9 9 9 10 12 12 12 12 13 13 13 13 14 15 17 17 18 18 18 18 17 16 14 13 13 13 13 15 17 17 16 16 17 18 19 19 19 20 21 22 23 24 24 25 25 26 26 27 27 27 27 27 27 27 27 27 27 27 27 27 27 27 28 28 28 28 28 28 28 28 28 28 28 28 28 28 29
7 8 8 8 8 9 9 9 9 9 9 10 11 12 12 12 12 12 13 13 14 15 15 16 16 17 17 16 16 15 14 12 11 12 12 13 15 17 17 16 16 16 18 19 19 19 20 21 23 23 24 25 26 26 26 27 27 27 27 27 27 27 27 27 27 27 27 28 28 28 28 28 28 28 28 28 28 28 28 28 28 28 28 28 28 28
9 10 10 10 10 10 11 11 11 11 11 11 11 11 11 11 12 13 13 14 14 14 14 14 14 15 15 15 14 14 13 12 11 11 12 13 14 17 17 16 16 16 18 19 19 19 20 22 23 24 25 26 26 26 26 26 26 26 26 27 27 27 27 27 28 28 28 28 28 28 28 28 28 28 28 28 28 28 28 28 28 28 28 28 28 29
11 12 12 12 13 13 13 13 13 13 13 13 13 13 12 12 13 14 14 14 14 13 13 12 12 13 14 14 14 13 13 12 11 11 12 13 15 16 17 16 15 16 18 19 19 19 20 22 23 24 25 26 26 26 25 25 25 25 26 26 27 27 27 28 28 28 28 28 28 28 28 28 27 27 27 27 28 28 28 28 28 28 28 28 28 28
10 10 11 11 12 13 13 13 14 14 14 14 14 14 13 13 13 14 15 14 13 12 12 12 11 11 11 12 13 14 14 13 13 13 13 13 14 15 16 15 15 16 17 19 20 20 20 21 22 23 24 24 24 24 24 24 24 24 25 26 27 27 28 28 28 27 27 27 27 27 27 27 27 27 27 27 27 27 28 28 28 28 27 27 26 25
8 8 9 9 10 10 11 12 12 13 13 13 13 13 13 14 14 15 15 14 12 12 12 13 12 12 12 13 14 15 16 16 15 14 12 12 13 14 15 15 15 16 17 18 20 20 20 20 20 20 21 22 22 22 23 23 24 25 26 26 27 27 27 27 26 26 26 27 27 27 27 27 27 27 27 27 27 27 27 27 27 27 26 25 25 24
7 7 8 8 9 9 10 10 11 11 12 12 12 12 12 13 14 15 14 13 12 12 12 12 13 12 12 12 12 12 13 13 11 9 8 9 11 12 14 14 15 15 15 15 14 15 17 19 18 17 18 20 21 22 23 24 25 25 26 26 26 26 26 26 25 26 26 26 27 27 27 27 27 27 27 27 27 27 27 27 26 26 25 24 24 24
8 8 9 9 9 9 10 10 11 11 11 11 11 11 12 13 13 13 13 12 12 12 12 12 12 12 12 10 7 6 6 9 8 6 6 8 10 12 14 15 15 16 15 12 8 6 10 15 17 17 17 19 22 24 25 25 24 24 25 25 25 25 26 25 25 26 26 26 26 26 26 26 26 26 26 26 26 26 26 26 25 25 24 24 24 24
9 9 9 9 10 10 10 10 11 11 11 10 10 10 10 11 11 11 11 11 11 12 12 12 12 12 12 12 10 8 10 12 11 9 9 10 12 14 15 15 15 16 15 14 11 8 6 10 16 20 20 21 23 24 25 25 24 24 24 24 25 25 26 25 25 25 25 25 25 25 25 25 25 25 25 26 26 26 26 25 25 24 24 23 23 23
9 9 9 9 10 10 10 10 10 10 9 9 9 8 8 9 9 10 10 11 11 12 12 12 13 13 13 14 15 16 17 17 15 13 11 12 13 14 15 15 15 16 16 16 16 15 13 14 18 22 23 23 23 24 25 25 24 24 23 24 25 25 25 25 24 24 24 24 24 24 25 25 25 25 25 25 25 25 25 24 24 23 23 22 22 22
9 9 9 9 9 9 9 9 9 9 9 9 8 8 8 8 9 10 10 11 11 12 12 13 13 13 13 14 16 18 19 18 15 13 11 12 12 13 14 15 15 16 16 16 17 17 17 19 20 21 22 23 24 24 24 24 24 24 24 24 24 25 25 24 24 24 24 24 25 25 25 25 25 25 24 24 24 24 23 23 23 22 22 22 22 23
9 9 9 9 9 9 9 8 8 8 8 9 9 8 8 9 9 10 10 11 12 12 13 14 14 14 14 15 16 17 18 18 15 12 11 11 12 14 15 16 16 16 16 16 16 16 16 19 20 20 20 22 24 24 24 23 23 23 24 24 24 24 25 25 25 25 25 25 26 26 25 25 25 24 24 23 23 23 23 23 23 24 24 24 24 24
9 9 9 9 8 8 8 8 8 8 8 8 8 8 9 9 10 10 11 11 12 13 14 15 16 16 17 17 18 19 20 19 17 14 13 13 14 15 16 17 17 16 16 17 17 17 17 19 20 21 21 20 21 23 24 23 23 23 23 24 25 25 26 26 26 25 26 26 26 25 25 25 25 24 24 24 24 24 24 25 25 25 25 25 25 25
9 9 9 8 8 8 8 8 8 8 8 8 8 9 9 10 10 11 12 13 13 14 15 16 17 18 19 20 21 22 22 22 20 19 18 17 18 18 18 19 20 19 17 17 18 19 18 19 20 21 20 19 19 20 23 24 24 24 25 25 25 26 27 27 26 26 25 26 26 26 25 25 24 25 25 25 25 25 25 25 24 24 24 24 24 25
8 8 8 8 7 7 7 8 8 8 8 8 9 9 10 11 11 12 13 14 15 16 17 18 19 20 20 21 23 24 25 25 25 24 23 23 23 22 22 22 22 21 20 19 19 19 19 18 16 16 17 19 21 22 24 24 25 25 26 26 26 27 27 27 26 26 25 25 25 25 25 25 25 25 26 25 25 25 24 24 24 23 23 23 24 24
8 8 8 8 8 7 8 8 8 9 9 9 10 10 11 11 12 13 14 15 16 17 17 18 19 20 21 22 23 24 25 26 26 27 27 27 26 25 24 23 23 23 22 21 20 20 20 19 17 17 17 19 21 24 25 25 25 25 26 27 27 28 27 26 25 25 25 25 26 26 26 26 26 26 26 25 25 24 24 24 24 23 23 23 23 24
8 8 8 8 8 8 8 9 9 10 10 10 11 11 11 12 12 13 14 14 15 15 16 17 18 19 20 21 22 23 24 25 26 26 26 27 27 26 26 25 24 24 23 23 22 22 22 21 22 22 22 21 22 24 25 26 26 25 25 25 25 26 27 27 26 27 27 27 26 26 26 26 25 25 25 24 24 24 24 24 24 24 23 23 23 23
8 9 9 9 8 8 9 10 10 10 10 11 11 11 11 11 12 12 12 13 13 13 14 14 16 17 19 20 20 21 22 22 23 23 24 25 26 26 26 26 26 25 24 23 23 23 22 23 23 24 24 23 24 25 26 27 27 27 26 25 26 28 30 29 29 28 27 26 25 25 24 24 24 24 25 25 25 25 25 25 25 25 24 24 24 23
9 9 9 9 9 10 10 11 11 11 11 11 11 11 11 11 11 11 12 12 13 13 13 14 15 16 18 19 19 19 19 20 20 21 22 23 24 25 26 27 27 26 25 25 24 23 23 23 23 24 25 24 24 24 25 27 28 27 25 25 27 28 29 29 28 26 25 25 25 25 24 25 25 26 26 26 26 26 26 26 26 26 25 25 25 25
9 9 10 10 10 11 11 11 11 10 10 10 11 11 11 11 11 11 12 13 13 14 14 14 15 16 17 19 19 19 18 18 19 19 20 21 22 23 25 26 26 26 25 24 23 23 24 24 23 24 24 24 24 24 25 27 28 27 26 26 26 25 23 26 28 27 25 26 26 26 26 26 26 27 27 27 27 26 26 26 26 26 26 26 26 26
10 10 10 11 11 11 10 10 10 10 10 10 11 11 11 11 11 12 13 13 14 14 14 14 15 16 17 18 19 19 19 18 17 17 18 18 19 20 22 23 24 24 25 24 24 23 24 24 25 25 25 24 24 25 26 27 28 28 28 27 26 25 24 26 28 29 28 28 27 27 26 26 27 27 27 27 27 26 26 25 26 26 26 26 26 26
10 10 10 10 10 10 10 10 10 10 11 11 12 12 12 12 12 12 13 14 15 15 15 14 14 15 16 17 18 18 18 18 17 17 16 17 17 18 19 20 22 23 24 24 25 24 24 24 25 26 25 24 24 24 25 26 27 28 28 28 27 27 28 29 29 29 28 28 28 28 27 27 27 27 27 27 26 26 25 25 25 26 26 26 26 26
9 10 10 10 10 10 10 10 11 11 11 12 12 12 12 12 12 12 13 14 14 15 15 14 14 14 16 17 18 18 18 19 19 18 17 16 16 16 17 18 20 21 22 23 25 25 26 26 26 26 26 25 25 26 27 26 26 27 27 28 27 27 28 28 28 28 28 28 28 28 28 27 27 26 26 26 27 27 26 25 25 25 25 25 25 26
9 10 10 10 10 11 11 11 11 11 12 12 13 12 12 12 12 13 14 14 14 14 15 15 15 15 16 17 18 18 18 19 19 19 18 18 17 17 17 18 18 19 21 22 24 25 26 27 27 26 25 25 25 27 28 27 26 26 27 27 27 27 27 28 28 28 28 27 28 28 28 27 26 25 26 26 26 26 26 25 25 25 24 25 25 25
10 10 11 11 11 11 11 11 11 11 12 12 13 13 12 12 12 13 14 14 14 14 14 14 15 15 17 17 18 18 18 18 19 20 20 19 19 19 18 18 18 19 20 21 23 24 25 26 27 27 27 25 25 26 28 28 27 27 27 27 26 26 26 28 28 28 27 27 28 28 27 26 24 24 25 25 26 26 26 26 25 25 24 25 25 25
10 10 11 11 11 11 11 11 11 12 12 12 13 13 13 13 13 13 14 14 14 14 14 15 15 16 16 17 18 18 18 19 19 20 20 20 20 19 19 19 19 20 20 21 22 22 23 25 26 27 27 27 26 27 28 29 28 27 27 26 26 25 26 27 28 27 27 27 27 27 27 26 25 24 24 24 25 27 28 28 27 26 24 24 24 25
10 10 10 11 11 11 11 11 11 11 12 12 13 13 14 14 14 14 14 14 14 14 14 15 15 16 17 18 18 18 18 19 19 20 20 20 19 19 19 19 20 20 21 21 21 22 22 23 24 24 25 26 27 27 28 28 28 28 27 26 25 25 25 26 27 27 26 26 26 27 27 26 25 24 23 23 24 26 28 28 28 26 25 24 24 24
10 10 10 11 11 11 11 11 11 12 12 13 13 14 15 15 14 14 14 14 14 14 14 15 15 16 17 18 19 19 19 19 19 19 20 20 19 19 19 19 19 18 19 20 20 20 19 18 18 20 23 23 23 24 26 27 27 27 26 26 26 25 25 26 26 27 26 26 26 26 26 26 25 24 23 22 22 24 26 27 28 27 26 24 24 24
Wind_Direction
222 226 230 232 236 240 246 249 252 253 256 257 258 260 264 267 271 275 278 279 279 279 279 279 280 282 283 284 284 285 286 286 287 288 290 291 292 293 293 294 294 294 293 292 290 289 287 286 285 284 284 283 282 282 282 281 281 282 282 282 283 283 283 283 282 281 281 282 282 282 281 282 282 282 281 281 281 281 280 280 280 281 281 282 281 281
231 234 234 236 240 245 250 253 253 252 254 256 258 259 263 267 272 276 278 278 277 277 278 279 280 282 283 284 285 286 287 287 289 290 291 292 293 294 294 294 294 294 293 292 291 289 288 286 285 284 284 283 283 283 282 282 282 282 282 283 283 283 283 283 283 282 281 281 281 281 281 281 282 282 282 282 282 281 281 281 281 281 281 281 281 280
218 226 230 234 238 244 251 255 254 252 253 255 257 260 265 270 273 275 276 278 277 277 278 279 281 283 284 285 285 286 287 289 290 291 292 293 294 295 295 295 294 294 293 292 291 290 288 287 286 285 284 284 284 283 283 283 283 283 283 283 283 284 284 284 284 284 283 281 280 280 280 279 280 281 281 281 281 281 281 281 281 281 280 280 280 280
230 233 236 240 242 245 249 253 255 255 255 257 260 264 267 269 271 273 275 277 279 280 280 281 282 283 284 285 286 287 289 290 291 292 293 294 295 295 295 295 294 293 292 291 291 290 289 287 286 285 285 285 284 284 284 284 284 284 284 284 284 284 284 284 284 284 284 284 283 282 282 281 281 281 281 281 281 281 281 281 281 281 280 280 280 280
243 241 242 244 246 247 249 252 256 259 261 263 264 266 267 268 271 274 277 279 280 280 281 281 282 283 284 286 288 289 291 292 293 294 295 295 295 295 294 294 293 292 292 291 290 289 289 288 287 286 286 285 285 285 285 285 285 284 285 285 285 285 285 285 284 284 284 284 284 283 283 283 282 282 282 282 282 281 281 281 280 280 280 280 280 279
241 243 245 246 248 250 254 257 260 263 265 265 264 264 266 269 273 276 279 280 280 281 281 282 283 284 285 287 289 291 293 294 295 296 296 295 295 294 294 293 292 292 291 291 290 289 289 288 288 287 287 287 286 286 286 286 286 285 285 285 285 285 285 285 285 284 284 284 283 283 282 282 282 281 281 281 281 281 280 280 279 279 279 279 279 278
245 247 248 250 252 255 260 262 263 262 261 262 264 267 270 274 277 278 279 279 280 280 282 283 285 286 286 288 291 293 295 297 297 297 296 296 295 294 293 293 292 292 291 291 290 290 289 289 288 288 287 287 287 287 287 287 287 287 287 287 286 286 286 285 285 284 284 284 283 282 282 282 281 281 280 280 279 279 279 279 279 278 278 278 278 277
250 252 252 253 257 261 263 263 261 258 258 262 269 275 280 282 281 280 279 278 278 280 283 285 287 288 289 292 294 296 298 298 299 298 297 296 295 294 294 293 292 292 291 291 290 290 289 289 288 288 287 287 287 287 287 287 287 288 288 287 287 287 287 286 285 285 284 284 283 283 282 282 281 280 280 279 279 279 278 278 278 277 277 277 277 277
250 255 257 256 258 261 264 264 262 259 260 265 271 277 282 285 285 283 281 280 279 280 284 289 292 293 294 295 297 298 298 298 298 298 297 296 295 295 294 294 293 293 292 291 291 291 291 290 290 289 289 288 288 288 288 288 288 288 288 288 288 288 287 287 286 285 285 284 283 283 282 282 281 281 280 280 279 278 278 277 277 276 276 276 276 276
246 252 257 258 257 257 260 265 267 266 265 266 268 270 274 278 282 284 285 284 285 287 290 294 297 298 298 299 299 299 299 298 297 296 296 295 295 295 295 295 294 294 294 294 294 293 293 293 292 292 291 291 290 290 290 290 290 289 289 289 288 288 288 287 286 286 285 285 284 283 283 282 282 281 281 280 279 278 277 277 276 276 275 275 275 276
245 248 252 257 259 258 258 263 267 268 266 265 265 266 266 269 276 285 292 294 296 298 298 297 297 298 300 301 301 301 301 300 299 298 297 296 296 296 297 297 296 296 296 296 296 296 295 295 295 294 294 293 292 292 291 291 290 290 289 289 288 288 287 287 287 286 286 285 284 284 283 283 282 282 281 280 279 278 277 277 276 276 275 275 275 275
244 248 252 256 260 262 262 264 266 265 262 261 263 266 268 273 282 292 300 300 301 302 301 300 298 297 298 300 301 301 301 300 299 299 299 298 299 299 300 300 299 299 299 299 298 297 297 297 297 296 295 295 294 293 292 292 291 291 290 289 289 288 287 287 287 286 286 285 285 285 284 283 283 282 281 280 279 278 278 277 277 276 276 276 275 275
243 247 251 256 258 260 261 264 265 264 261 263 269 278 286 293 299 302 300 297 298 300 302 301 300 299 298 298 298 298 299 298 298 299 299 300 300 302 303 303 302 302 301 301 300 299 299 299 298 297 296 296 295 294 293 292 292 291 291 290 289 289 288 287 287 287 287 286 286 286 285 284 283 282 282 281 280 279 278 277 277 277 276 276 276 276
243 245 248 251 253 256 260 265 270 273 274 277 282 288 294 300 302 302 299 295 296 299 302 302 301 300 299 298 296 296 297 297 298 299 299 300 301 303 304 304 303 302 302 301 300 299 299 300 299 298 297 297 296 295 294 293 292 291 291 291 290 290 289 289 288 288 288 288 287 287 286 285 284 283 282 281 281 280 279 278 278 277 277 276 276 275
245 247 251 254 258 263 267 272 275 278 281 284 288 292 296 297 298 299 298 298 300 303 305 303 301 299 298 297 296 297 298 299 301 301 302 301 301 303 305 305 303 302 301 300 298 298 299 299 298 297 297 296 295 294 294 293 292 292 292 291 291 290 290 290 289 289 289 289 288 287 287 286 285 284 283 282 282 281 280 279 278 278 277 277 276 275
251 256 262 267 269 271 272 274 276 279 282 286 290 294 296 297 298 299 301 301 303 305 304 302 301 301 300 299 299 300 302 304 304 304 304 302 302 303 305 305 303 301 299 298 297 298 299 298 298 296 295 294 294 294 293 293 292 292 292 292 291 291 290 290 290 290 289 289 288 288 287 286 286 285 284 283 282 282 281 280 279 278 278 277 276 276
257 262 266 268 269 270 271 272 275 279 284 287 288 289 291 294 298 301 302 302 302 301 298 298 299 301 303 304 304 306 309 310 309 307 305 302 301 302 304 304 301 299 297 296 295 296 297 297 296 295 294 294 294 294 294 293 293 293 292 292 292 291 291 291 291 290 289 289 288 288 287 287 286 285 285 284 283 282 281 280 280 279 278 277 277 276
252 256 259 262 265 268 271 274 277 279 283 285 286 288 290 293 297 299 298 297 294 293 292 293 293 295 299 301 302 305 312 313 311 308 304 301 299 300 302 301 298 296 295 294 294 295 296 295 295 294 294 294 294 294 294 293 293 293 293 293 292 292 291 291 291 290 290 289 289 288 287 287 286 285 285 284 283 282 282 281 280 279 278 278 277 276
252 254 259 264 269 274 277 278 278 282 286 288 292 296 297 297 296 295 292 289 287 286 288 290 290 290 291 291 294 301 309 312 311 307 303 299 298 299 301 300 297 295 293 293 294 296 296 295 295 295 295 294 294 294 294 294 294 294 294 293 293 293 292 292 291 291 290 289 289 288 288 287 286 286 285 284 283 283 282 281 281 280 279 279 278 277
265 266 270 276 280 282 281 279 279 284 288 293 299 300 297 296 294 291 287 285 284 284 286 287 287 287 288 289 293 298 305 310 309 305 300 296 295 297 299 299 297 295 293 293 294 296 297 296 296 296 296 296 296 296 296 295 295 294 294 294 294 293 293 292 292 291 290 290 289 288 288 287 287 286 285 285 284 283 282 282 281 280 280 279 279 278
275 274 275 279 282 282 280 278 279 281 285 291 296 296 292 291 288 286 283 284 284 285 285 283 283 285 288 290 293 296 301 304 303 299 296 294 293 294 296 297 296 295 294 294 296 297 298 297 297 296 297 297 297 296 296 295 295 295 295 294 294 293 293 292 292 291 291 290 289 289 288 288 287 286 286 285 284 284 283 282 282 281 281 280 279 279
270 271 273 276 277 276 275 275 276 278 281 285 288 287 284 284 284 284 284 285 286 286 285 284 284 286 288 289 290 291 294 294 292 291 292 291 291 292 295 297 297 295 294 294 296 298 298 298 297 297 297 297 296 296 296 296 296 295 295 295 294 294 293 292 292 291 290 290 289 288 288 288 287 287 286 286 285 284 284 283 283 282 281 281 280 280
265 268 272 274 274 272 271 272 273 274 275 275 273 272 274 276 279 281 283 285 286 285 285 285 285 286 286 286 286 287 288 286 284 283 285 285 287 290 295 298 297 294 292 294 297 299 299 298 297 296 297 297 297 296 296 296 296 296 296 295 295 294 293 292 292 291 291 290 289 289 289 288 288 287 287 286 286 285 284 284 283 283 282 281 280 280
265 268 270 272 273 271 270 271 272 272 270 270 270 270 272 273 275 276 278 281 282 283 285 286 287 286 285 285 285 285 285 283 281 279 278 279 283 288 292 296 296 293 291 293 296 299 299 298 297 297 297 297 297 297 297 297 297 297 296 296 295 294 294 293 292 292 291 291 290 290 289 288 288 288 287 287 286 286 285 284 284 283 283 282 281 280
265 266 266 269 271 271 270 270 270 268 269 272 274 276 276 275 275 276 278 279 280 281 283 285 284 284 284 285 285 285 285 283 279 275 274 276 281 285 289 293 293 292 292 294 296 298 299 298 297 297 298 297 297 298 298 298 298 297 297 296 296 295 294 294 293 293 292 292 291 290 290 289 288 288 288 287 286 286 286 285 284 284 283 282 282 281
264 264 265 266 268 268 268 268 267 267 269 271 273 274 275 275 277 278 277 276 276 277 278 279 279 280 283 285 286 286 286 285 280 275 273 277 282 285 288 291 292 291 292 295 297 299 299 298 298 298 298 297 298 298 299 298 298 298 297 296 296 295 295 294 294 293 293 292 292 291 290 289 288 288 287 287 287 286 286 285 285 285 284 284 283 282
273 269 266 265 265 265 265 266 266 266 267 268 268 269 271 272 274 274 272 270 270 271 272 273 276 279 283 284 284 284 285 286 282 277 276 278 281 283 285 288 291 292 294 296 297 298 298 296 296 296 297 297 298 299 299 299 298 298 297 297 296 296 295 295 294 294 293 292 292 291 290 289 289 288 288 288 287 287 286 286 286 285 285 285 284 283
286 280 273 269 267 267 267 267 267 267 267 266 266 265 265 265 265 264 264 265 267 267 267 268 272 277 280 282 283 284 286 285 281 278 276 275 274 276 281 287 292 295 298 299 299 298 296 293 293 294 294 296 297 298 299 299 298 298 297 297 296 296 295 295 294 294 293 293 292 291 291 290 289 289 288 288 288 287 287 287 286 286 286 285 284 282
289 286 285 279 275 275 275 274 272 271 269 267 265 263 260 257 255 255 258 262 264 264 264 265 268 271 276 281 285 287 286 283 281 278 273 269 268 272 280 289 295 299 302 303 302 300 296 292 291 291 292 295 296 297 298 299 299 299 298 297 297 296 296 295 295 294 294 293 292 292 291 290 290 289 289 288 288 287 287 287 287 287 286 285 283 281
281 281 283 280 279 277 277 276 275 273 270 268 265 262 257 252 250 250 254 257 258 259 260 263 265 268 274 281 286 288 285 283 283 282 276 271 272 278 287 293 296 299 304 306 306 303 299 296 293 292 292 295 297 297 298 299 299 299 298 298 298 297 297 296 296 295 294 294 293 292 291 291 290 290 289 289 289 288 288 287 287 287 286 284 282 281
283 282 281 280 278 276 274 272 272 272 270 268 265 260 255 251 248 248 250 251 251 253 256 260 263 266 269 275 280 284 281 282 286 293 293 288 284 285 291 294 296 296 299 300 302 303 302 301 299 297 297 297 298 297 298 298 298 298 298 298 297 297 296 296 296 296 295 294 293 292 292 291 291 291 290 290 289 289 288 288 287 286 285 283 281 280
284 283 282 281 279 277 275 272 271 271 270 268 264 258 253 248 246 246 246 246 247 249 252 257 260 263 263 264 264 266 271 276 282 290 296 294 288 287 289 290 291 292 293 291 287 285 293 298 299 299 299 298 297 297 297 297 297 297 297 297 296 295 296 297 297 296 296 295 294 293 293 292 292 292 291 290 289 289 288 287 287 285 284 282 280 279
282 282 281 280 279 276 274 271 269 268 266 264 261 256 252 248 246 245 246 246 246 248 250 254 258 261 262 262 263 265 269 273 278 284 290 288 286 286 287 288 289 290 292 290 285 281 280 284 291 296 297 297 295 295 295 296 296 296 296 296 295 295 296 297 297 297 296 296 295 294 294 293 292 292 291 290 289 288 287 287 286 284 283 281 279 278
283 282 281 280 278 275 273 270 267 265 263 261 259 257 254 253 252 250 250 249 249 248 249 251 254 258 261 264 265 267 269 272 276 281 285 284 283 284 287 288 289 290 292 291 288 284 281 282 287 292 295 296 295 294 293 294 295 295 295 295 294 295 296 297 297 296 296 295 295 294 294 293 292 292 291 290 289 288 287 286 285 284 282 280 279 277
285 284 283 281 278 276 273 270 268 266 264 263 261 260 258 258 257 256 255 254 252 251 250 250 251 253 257 261 265 269 271 274 277 281 284 284 285 287 288 287 287 288 289 288 288 287 286 286 287 289 293 295 295 294 294 293 294 295 295 294 294 293 294 295 295 295 295 294 294 293 292 292 292 291 290 289 288 287 287 287 286 285 284 282 279 278
286 284 283 281 279 276 274 272 271 269 268 266 265 263 262 262 261 260 259 258 256 255 254 254 253 253 254 257 261 266 270 274 278 280 281 282 283 284 284 283 283 284 285 285 285 285 285 287 288 289 290 292 293 295 295 296 296 296 295 295 294 293 293 293 293 293 293 293 292 291 291 291 291 290 289 289 288 288 288 288 287 286 285 283 280 278
284 283 282 281 279 277 276 275 274 273 272 271 269 268 267 265 264 263 263 261 260 260 259 259 259 258 257 258 260 263 267 272 276 277 277 276 276 276 277 278 279 280 278 279 281 283 284 286 288 289 288 287 288 292 296 298 299 297 295 295 295 294 293 293 292 292 291 290 290 290 290 290 290 289 289 289 289 289 288 287 286 286 284 283 281 279
281 281 282 281 280 279 278 278 277 276 275 275 275 274 272 270 268 267 266 265 264 264 264 265 265 264 264 263 264 266 269 272 274 275 275 274 273 271 271 273 275 274 273 273 275 277 280 282 285 287 287 286 286 288 292 295 296 296 295 295 294 293 292 292 292 291 291 290 289 289 289 289 289 289 288 288 289 288 287 287 286 285 284 282 281 279
279 281 282 282 281 281 281 280 280 280 279 278 278 277 276 275 273 272 272 271 270 269 269 270 270 271 271 271 271 271 271 272 274 275 276 275 272 270 268 269 270 272 271 270 270 270 272 274 276 279 283 285 287 289 290 291 291 292 294 295 295 294 292 292 292 292 291 290 290 290 289 288 288 287 287 286 286 286 285 285 285 284 282 281 281 280
281 282 282 282 282 282 282 282 282 283 283 283 282 281 279 279 278 278 277 277 275 273 272 272 273 273 274 274 274 273 273 274 275 277 277 276 274 271 268 267 268 270 271 270 269 267 268 269 271 274 276 279 283 286 289 289 289 290 292 294 294 293 293 293 293 292 291 290 289 288 288 287 287 286 285 285 284 283 282 283 282 282 281 280 279 279
284 284 283 284 285 285 284 284 284 285 285 285 284 283 282 281 281 282 281 281 279 276 276 276 276 277 278 276 275 274 274 275 275 275 275 275 275 273 270 267 267 268 269 268 267 265 264 266 269 271 273 275 278 281 284 285 286 288 289 289 289 290 292 292 292 292 291 289 288 287 286 286 286 286 285 284 283 282 280 279 279 279 279 278 276 275
283 282 283 286 288 288 288 288 287 287 286 284 283 282 281 282 282 283 284 284 283 282 281 281 282 283 283 282 280 278 275 274 274 274 275 275 274 273 271 268 267 266 266 266 266 266 264 264 266 269 272 274 276 279 282 283 285 285 285 284 286 289 292 292 291 290 290 289 288 287 287 286 286 285 285 284 282 281 279 277 276 276 275 274 272 270
281 281 284 286 288 289 290 291 290 288 287 285 283 282 282 281 281 282 284 284 284 284 284 284 285 286 286 286 286 285 282 280 278 277 276 275 275 274 272 270 268 265 264 263 265 266 266 266 265 266 269 272 274 275 279 282 284 284 284 283 285 288 290 291 291 292 290 289 288 287 285 284 284 283 283 282 281 279 278 276 276 275 272 270 269 268
280 283 285 288 289 291 291 290 289 288 287 286 285 284 283 282 282 282 282 282 284 285 286 287 287 287 286 286 288 289 290 289 286 283 280 277 276 275 274 271 268 266 264 261 262 265 269 270 270 270 271 272 272 274 276 280 282 283 283 283 282 281 281 284 288 290 289 288 286 285 283 283 282 282 282 281 279 278 276 275 273 272 270 268 267 266
282 285 287 289 291 291 289 288 288 289 288 287 286 285 284 283 283 283 281 283 284 286 287 288 289 289 287 288 290 292 294 294 292 289 286 283 280 277 275 272 270 268 265 262 261 262 265 269 272 274 275 273 272 272 274 276 279 281 282 282 282 280 278 280 283 285 286 286 285 284 284 283 283 282 281 280 279 277 276 274 272 271 270 269 267 266
284 287 289 289 289 288 287 288 289 290 289 288 287 286 285 285 284 283 282 283 284 285 286 286 286 284 285 288 291 294 295 296 296 295 292 290 287 284 280 276 273 271 269 266 265 264 264 266 269 274 276 276 275 274 273 274 277 279 281 282 282 281 281 281 282 282 282 283 283 284 284 284 283 281 279 279 279 279 277 275 273 271 270 269 267 266
286 287 288 288 288 288 288 289 289 289 288 288 287 286 285 284 285 285 284 283 283 284 285 286 283 281 281 284 288 291 293 295 296 296 296 295 293 290 286 282 278 275 272 270 269 268 267 266 267 269 272 274 276 276 276 275 276 277 279 280 281 282 281 282 282 282 282 281 281 282 284 284 282 280 279 279 279 279 279 277 275 272 270 269 268 267
287 287 287 287 288 288 287 287 288 287 286 287 288 288 286 285 285 285 285 285 284 284 286 285 283 282 282 283 285 287 289 291 292 294 296 296 295 294 291 289 286 282 279 276 274 272 270 269 268 267 267 268 271 274 276 277 276 276 277 278 279 279 279 280 282 283 282 281 281 281 282 282 281 280 280 281 281 282 281 280 279 276 273 271 270 268
285 284 285 285 285 285 284 284 285 285 284 286 288 289 288 288 286 285 284 284 284 283 283 282 282 282 283 284 285 286 287 288 289 291 292 294 294 295 294 293 292 291 288 285 282 279 276 274 271 268 265 263 265 268 272 275 276 276 276 277 276 277 278 280 282 283 283 283 283 283 284 282 281 280 280 280 281 283 283 283 282 280 277 274 272 270
282 282 281 281 281 280 281 282 283 283 285 287 289 290 291 290 288 286 284 283 281 279 278 278 279 281 283 285 286 287 287 288 288 288 289 291 293 293 293 294 294 294 294 293 291 288 286 283 279 274 269 264 261 263 267 271 275 277 278 277 277 277 279 280 282 284 285 286 286 287 287 285 284 282 280 279 280 282 284 284 284 283 281 278 276 273
282 281 280 279 278 278 280 281 282 284 286 288 289 290 291 290 289 287 284 282 280 278 277 277 278 279 282 284 285 286 286 285 285 286 287 290 291 291 291 292 293 293 295 295 295 294 292 289 287 284 281 274 268 263 263 268 274 278 279 279 279 280 281 282 284 285 286 287 287 287 287 286 285 283 281 279 279 281 284 285 285 285 283 282 279 276